BEIJING 1 1 28890U 05043A 26263.59135012 .00000080 00000+0 24925-4 0 9997 2 28890 98.3049 37.4093 0014380 348.6194 11.4680 14.63578671114609 HUANJING 1A (HJ-1A) 1 33320U 08041A 26263.63726247 .00000472 00000+0 62478-4 0 9993 2 33320 97.6795 245.8475 0018607 180.3540 179.7665 14.84166976972566 HUANJING 1B (HJ-1B) 1 33321U 08041B 26263.58314351 .00000530 00000+0 70155-4 0 9993 2 33321 97.6626 248.6732 0034829 229.0012 130.8189 14.83467140972550 YAOGAN-4 1 33446U 08061A 26263.41965394 .00000544 00000+0 72817-4 0 9996 2 33446 97.9331 196.2436 0015462 117.4029 242.8760 14.83348678959786 DEIMOS-1 1 35681U 09041A 26263.54836207 .00000522 00000+0 84059-4 0 9999 2 35681 97.7538 56.7211 0000538 143.3198 216.8048 14.75319402920940 UK-DMC 2 1 35683U 09041C 26263.60232843 .00000474 00000+0 75790-4 0 9992 2 35683 97.8970 36.3154 0001135 70.7708 289.3625 14.76146676920642 DMC3-FM1 1 40715U 15032A 26263.63472708 .00000336 00000+0 44508-4 0 9990 2 40715 97.6311 125.0032 0007047 95.4402 264.7618 14.85821409604085 DMC3-FM2 1 40716U 15032B 26263.58897394 .00000881 00000+0 10712-3 0 9991 2 40716 97.6363 126.5966 0007576 99.9388 260.2683 14.85832687604076 DMC3-FM3 1 40717U 15032C 26263.61302431 .00000136 00000+0 21567-4 0 9993 2 40717 97.6410 128.4312 0006732 99.0410 261.1568 14.85818418604085